Precipitable_Water
0.25 0.25 0.25 0.25 0.25 0.25 0.23 0.25 0.25 0.23 0.23 0.25 0.25 0.25 0.25 0.25 0.25 0.25 0.25 0.25 0.25 0.25 0.25 0.25 0.25 0.25 0.23 0.23 0.25 0.25 0.25 0.25 0.25 0.27 0.27 0.27 0.27 0.27 0.27 0.27 0.27 0.28 0.28 0.27 0.27 0.27 0.27 0.27 0.27 0.27 0.27 0.27 0.27 0.27 0.27 0.28 0.28 0.28 0.28 0.28 0.28 0.28 0.30 0.30 0.30 0.30 0.30 0.30 0.32 0.32 0.34 0.34 0.34 0.34 0.34 0.34 0.34 0.34 0.34 0.36 0.36 0.36 0.36 0.38 0.38 0.38
0.25 0.25 0.25 0.25 0.25 0.23 0.23 0.25 0.25 0.25 0.23 0.23 0.23 0.25 0.25 0.25 0.25 0.25 0.25 0.25 0.25 0.25 0.25 0.25 0.25 0.25 0.23 0.23 0.25 0.25 0.25 0.25 0.25 0.27 0.27 0.27 0.27 0.27 0.27 0.27 0.27 0.27 0.27 0.27 0.27 0.27 0.27 0.27 0.27 0.27 0.27 0.27 0.27 0.27 0.27 0.27 0.28 0.28 0.28 0.28 0.28 0.28 0.28 0.28 0.28 0.28 0.30 0.30 0.30 0.30 0.32 0.32 0.32 0.32 0.32 0.34 0.34 0.34 0.36 0.36 0.36 0.36 0.38 0.38 0.38 0.38
0.23 0.23 0.23 0.25 0.23 0.23 0.23 0.23 0.25 0.25 0.25 0.23 0.25 0.25 0.25 0.25 0.23 0.25 0.25 0.25 0.25 0.25 0.25 0.25 0.25 0.25 0.25 0.25 0.25 0.25 0.25 0.25 0.25 0.25 0.27 0.27 0.27 0.27 0.27 0.27 0.27 0.27 0.27 0.27 0.27 0.27 0.27 0.27 0.27 0.27 0.27 0.27 0.27 0.27 0.27 0.27 0.28 0.28 0.28 0.28 0.28 0.28 0.28 0.28 0.28 0.28 0.28 0.28 0.28 0.30 0.30 0.30 0.30 0.32 0.32 0.32 0.34 0.34 0.34 0.36 0.36 0.36 0.36 0.38 0.38 0.38
0.23 0.23 0.23 0.23 0.25 0.23 0.23 0.23 0.25 0.25 0.25 0.25 0.25 0.25 0.25 0.25 0.23 0.23 0.25 0.25 0.25 0.25 0.25 0.25 0.25 0.25 0.25 0.25 0.25 0.25 0.25 0.25 0.25 0.27 0.27 0.27 0.27 0.27 0.27 0.25 0.25 0.25 0.25 0.25 0.27 0.27 0.27 0.27 0.27 0.27 0.27 0.27 0.27 0.27 0.27 0.27 0.27 0.28 0.28 0.28 0.28 0.28 0.28 0.28 0.28 0.28 0.28 0.28 0.28 0.28 0.28 0.30 0.30 0.30 0.32 0.32 0.32 0.34 0.34 0.34 0.36 0.36 0.36 0.38 0.38 0.38
0.23 0.23 0.23 0.23 0.23 0.23 0.23 0.25 0.25 0.25 0.25 0.25 0.25 0.25 0.25 0.25 0.23 0.23 0.25 0.25 0.25 0.25 0.25 0.25 0.25 0.25 0.25 0.25 0.25 0.25 0.25 0.25 0.25 0.25 0.27 0.25 0.25 0.25 0.25 0.25 0.25 0.25 0.25 0.25 0.27 0.27 0.27 0.27 0.27 0.27 0.27 0.27 0.27 0.27 0.27 0.27 0.28 0.28 0.28 0.28 0.28 0.28 0.28 0.28 0.28 0.28 0.28 0.28 0.28 0.28 0.28 0.28 0.28 0.30 0.30 0.30 0.32 0.32 0.32 0.34 0.34 0.36 0.36 0.36 0.38 0.38
0.23 0.23 0.25 0.23 0.23 0.23 0.23 0.25 0.25 0.25 0.25 0.25 0.25 0.25 0.25 0.25 0.25 0.25 0.23 0.25 0.25 0.25 0.25 0.25 0.25 0.25 0.25 0.25 0.25 0.25 0.25 0.25 0.25 0.25 0.25 0.25 0.25 0.25 0.25 0.25 0.25 0.25 0.25 0.25 0.25 0.27 0.27 0.27 0.27 0.27 0.27 0.27 0.27 0.27 0.27 0.27 0.28 0.28 0.28 0.28 0.28 0.28 0.28 0.28 0.28 0.28 0.28 0.28 0.28 0.28 0.28 0.28 0.28 0.28 0.30 0.30 0.30 0.32 0.32 0.32 0.34 0.34 0.34 0.36 0.36 0.36
0.23 0.23 0.25 0.25 0.23 0.23 0.23 0.25 0.25 0.25 0.23 0.23 0.23 0.23 0.23 0.25 0.25 0.23 0.23 0.25 0.25 0.25 0.25 0.25 0.25 0.25 0.25 0.25 0.25 0.25 0.25 0.25 0.25 0.25 0.25 0.25 0.25 0.25 0.25 0.25 0.25 0.25 0.25 0.25 0.25 0.27 0.27 0.27 0.27 0.27 0.27 0.27 0.27 0.27 0.27 0.27 0.28 0.28 0.28 0.28 0.28 0.28 0.28 0.28 0.28 0.28 0.28 0.28 0.28 0.28 0.28 0.28 0.28 0.28 0.28 0.28 0.30 0.30 0.30 0.32 0.32 0.32 0.34 0.34 0.34 0.36
0.23 0.23 0.23 0.23 0.23 0.23 0.23 0.23 0.23 0.25 0.23 0.23 0.23 0.23 0.23 0.23 0.23 0.23 0.25 0.25 0.25 0.25 0.25 0.25 0.25 0.25 0.25 0.25 0.25 0.25 0.25 0.25 0.25 0.25 0.25 0.25 0.25 0.25 0.25 0.25 0.25 0.25 0.25 0.25 0.25 0.25 0.25 0.25 0.27 0.27 0.27 0.27 0.27 0.27 0.27 0.27 0.27 0.27 0.27 0.27 0.28 0.28 0.28 0.28 0.28 0.28 0.28 0.28 0.28 0.28 0.28 0.28 0.28 0.28 0.28 0.28 0.30 0.30 0.30 0.30 0.32 0.32 0.32 0.34 0.34 0.34
0.23 0.23 0.23 0.23 0.23 0.23 0.23 0.23 0.23 0.25 0.25 0.23 0.23 0.23 0.21 0.23 0.23 0.23 0.23 0.23 0.25 0.25 0.25 0.23 0.23 0.23 0.25 0.25 0.25 0.25 0.25 0.25 0.25 0.25 0.25 0.25 0.25 0.25 0.25 0.25 0.25 0.25 0.25 0.25 0.25 0.25 0.25 0.25 0.25 0.25 0.27 0.27 0.27 0.27 0.27 0.27 0.27 0.27 0.27 0.27 0.27 0.27 0.27 0.27 0.27 0.28 0.28 0.28 0.28 0.28 0.28 0.28 0.28 0.28 0.28 0.28 0.28 0.30 0.30 0.30 0.32 0.32 0.32 0.34 0.34 0.34
0.23 0.23 0.23 0.23 0.23 0.23 0.21 0.21 0.23 0.23 0.25 0.25 0.25 0.23 0.23 0.23 0.21 0.21 0.21 0.23 0.23 0.25 0.23 0.23 0.23 0.23 0.23 0.23 0.23 0.25 0.25 0.25 0.25 0.25 0.25 0.25 0.25 0.25 0.25 0.25 0.25 0.25 0.25 0.25 0.25 0.25 0.25 0.25 0.25 0.25 0.25 0.25 0.25 0.27 0.27 0.27 0.27 0.27 0.27 0.27 0.27 0.27 0.27 0.27 0.27 0.28 0.28 0.28 0.28 0.28 0.28 0.28 0.28 0.28 0.28 0.28 0.28 0.30 0.30 0.30 0.30 0.32 0.32 0.32 0.34 0.34
0.23 0.23 0.21 0.21 0.23 0.23 0.21 0.23 0.23 0.23 0.25 0.25 0.25 0.25 0.25 0.23 0.23 0.23 0.21 0.21 0.23 0.23 0.23 0.23 0.23 0.23 0.21 0.23 0.23 0.23 0.23 0.23 0.23 0.23 0.25 0.25 0.25 0.25 0.25 0.25 0.25 0.25 0.25 0.25 0.25 0.25 0.25 0.25 0.25 0.25 0.25 0.25 0.25 0.27 0.27 0.27 0.27 0.27 0.27 0.27 0.27 0.27 0.27 0.27 0.27 0.27 0.28 0.28 0.28 0.28 0.28 0.28 0.28 0.28 0.28 0.30 0.30 0.30 0.30 0.30 0.30 0.32 0.32 0.32 0.32 0.34
0.21 0.21 0.21 0.21 0.21 0.21 0.23 0.23 0.23 0.25 0.25 0.25 0.23 0.23 0.23 0.23 0.23 0.23 0.21 0.21 0.21 0.21 0.21 0.23 0.23 0.23 0.23 0.23 0.23 0.23 0.23 0.23 0.23 0.23 0.23 0.23 0.23 0.23 0.23 0.23 0.23 0.23 0.25 0.25 0.25 0.25 0.25 0.25 0.25 0.25 0.25 0.25 0.25 0.25 0.27 0.27 0.27 0.27 0.27 0.27 0.27 0.27 0.27 0.27 0.27 0.28 0.28 0.28 0.28 0.28 0.28 0.28 0.30 0.30 0.30 0.30 0.30 0.30 0.30 0.30 0.32 0.32 0.32 0.32 0.32 0.34
0.21 0.21 0.21 0.21 0.21 0.21 0.21 0.21 0.21 0.23 0.23 0.23 0.21 0.21 0.21 0.23 0.23 0.23 0.21 0.21 0.19 0.21 0.21 0.21 0.21 0.21 0.23 0.23 0.23 0.23 0.23 0.21 0.21 0.23 0.23 0.23 0.23 0.23 0.23 0.23 0.23 0.23 0.23 0.23 0.23 0.25 0.25 0.25 0.25 0.25 0.25 0.25 0.25 0.25 0.27 0.27 0.27 0.27 0.27 0.27 0.27 0.27 0.27 0.27 0.28 0.28 0.28 0.28 0.30 0.30 0.30 0.30 0.30 0.30 0.30 0.30 0.30 0.30 0.30 0.32 0.32 0.32 0.32 0.32 0.32 0.34
0.21 0.21 0.19 0.19 0.21 0.21 0.21 0.21 0.21 0.21 0.21 0.21 0.21 0.21 0.21 0.23 0.21 0.21 0.21 0.21 0.21 0.21 0.21 0.21 0.21 0.21 0.21 0.23 0.23 0.23 0.23 0.23 0.21 0.21 0.21 0.23 0.23 0.23 0.23 0.23 0.23 0.23 0.23 0.23 0.23 0.23 0.25 0.25 0.25 0.25 0.25 0.25 0.25 0.25 0.25 0.25 0.27 0.27 0.27 0.27 0.27 0.27 0.28 0.28 0.28 0.28 0.30 0.30 0.30 0.30 0.30 0.30 0.30 0.30 0.30 0.30 0.30 0.32 0.32 0.32 0.32 0.32 0.32 0.32 0.32 0.34
0.19 0.19 0.19 0.19 0.19 0.19 0.21 0.21 0.21 0.21 0.21 0.23 0.23 0.23 0.23 0.23 0.21 0.21 0.21 0.19 0.21 0.21 0.21 0.21 0.21 0.21 0.21 0.23 0.23 0.23 0.23 0.23 0.21 0.21 0.21 0.21 0.21 0.23 0.23 0.23 0.23 0.23 0.23 0.23 0.23 0.25 0.25 0.25 0.25 0.25 0.25 0.25 0.25 0.25 0.25 0.27 0.27 0.27 0.27 0.27 0.27 0.28 0.28 0.28 0.28 0.30 0.30 0.30 0.30 0.30 0.30 0.30 0.30 0.30 0.30 0.30 0.30 0.32 0.32 0.32 0.32 0.32 0.32 0.32 0.32 0.34
0.21 0.21 0.19 0.19 0.19 0.21 0.21 0.21 0.21 0.21 0.21 0.21 0.21 0.21 0.21 0.21 0.21 0.21 0.19 0.19 0.19 0.19 0.19 0.19 0.19 0.19 0.21 0.23 0.23 0.23 0.23 0.23 0.21 0.21 0.21 0.21 0.21 0.23 0.25 0.23 0.23 0.23 0.23 0.23 0.23 0.25 0.25 0.25 0.25 0.25 0.25 0.25 0.25 0.27 0.27 0.27 0.27 0.27 0.27 0.27 0.28 0.28 0.28 0.28 0.28 0.28 0.28 0.28 0.28 0.28 0.28 0.28 0.28 0.30 0.30 0.30 0.30 0.30 0.32 0.32 0.32 0.32 0.32 0.32 0.32 0.34
0.21 0.21 0.21 0.19 0.19 0.21 0.21 0.21 0.21 0.21 0.21 0.21 0.21 0.21 0.21 0.19 0.21 0.21 0.21 0.19 0.19 0.19 0.19 0.19 0.17 0.17 0.17 0.19 0.21 0.23 0.25 0.23 0.21 0.21 0.21 0.21 0.23 0.23 0.25 0.23 0.23 0.23 0.23 0.23 0.23 0.25 0.25 0.25 0.25 0.25 0.25 0.25 0.25 0.25 0.27 0.27 0.27 0.27 0.27 0.27 0.27 0.27 0.27 0.27 0.27 0.28 0.28 0.28 0.28 0.28 0.28 0.28 0.28 0.30 0.30 0.30 0.30 0.30 0.30 0.32 0.32 0.32 0.32 0.32 0.32 0.32
0.21 0.21 0.21 0.19 0.19 0.19 0.21 0.21 0.21 0.21 0.21 0.19 0.21 0.21 0.21 0.21 0.21 0.21 0.21 0.21 0.19 0.19 0.19 0.19 0.19 0.17 0.17 0.17 0.19 0.21 0.25 0.23 0.23 0.21 0.21 0.21 0.21 0.23 0.25 0.23 0.23 0.23 0.23 0.23 0.23 0.25 0.25 0.25 0.25 0.25 0.25 0.25 0.25 0.25 0.27 0.27 0.27 0.27 0.27 0.27 0.27 0.27 0.27 0.27 0.27 0.27 0.28 0.28 0.28 0.28 0.28 0.28 0.30 0.30 0.30 0.30 0.30 0.30 0.30 0.30 0.32 0.32 0.32 0.32 0.32 0.32
0.21 0.21 0.21 0.21 0.19 0.19 0.19 0.19 0.19 0.19 0.19 0.21 0.21 0.21 0.21 0.21 0.21 0.21 0.21 0.21 0.21 0.21 0.21 0.19 0.19 0.19 0.19 0.19 0.21 0.23 0.25 0.25 0.23 0.21 0.21 0.19 0.19 0.21 0.23 0.23 0.23 0.23 0.23 0.23 0.23 0.23 0.25 0.25 0.25 0.25 0.25 0.25 0.25 0.25 0.25 0.25 0.27 0.27 0.27 0.27 0.27 0.27 0.27 0.27 0.27 0.28 0.28 0.28 0.28 0.28 0.28 0.28 0.28 0.30 0.30 0.30 0.30 0.30 0.30 0.30 0.32 0.32 0.32 0.32 0.32 0.32
0.21 0.21 0.21 0.19 0.19 0.19 0.19 0.19 0.19 0.19 0.21 0.21 0.21 0.21 0.21 0.21 0.21 0.21 0.21 0.21 0.21 0.21 0.21 0.21 0.19 0.19 0.21 0.19 0.21 0.25 0.25 0.23 0.23 0.21 0.19 0.19 0.19 0.21 0.23 0.23 0.21 0.21 0.21 0.21 0.23 0.23 0.23 0.23 0.25 0.25 0.25 0.25 0.25 0.25 0.25 0.25 0.27 0.27 0.27 0.27 0.27 0.27 0.27 0.27 0.28 0.28 0.28 0.28 0.28 0.28 0.28 0.28 0.30 0.30 0.30 0.30 0.30 0.30 0.30 0.32 0.32 0.32 0.32 0.32 0.32 0.32
0.19 0.19 0.21 0.21 0.19 0.19 0.19 0.19 0.21 0.21 0.21 0.23 0.23 0.23 0.21 0.21 0.21 0.21 0.21 0.21 0.21 0.21 0.21 0.21 0.21 0.21 0.21 0.21 0.21 0.23 0.25 0.23 0.23 0.21 0.19 0.19 0.19 0.21 0.23 0.23 0.21 0.21 0.21 0.21 0.23 0.23 0.23 0.23 0.25 0.25 0.25 0.25 0.25 0.25 0.25 0.27 0.27 0.27 0.27 0.27 0.27 0.27 0.27 0.27 0.28 0.28 0.28 0.28 0.28 0.28 0.30 0.30 0.30 0.30 0.30 0.30 0.30 0.32 0.32 0.32 0.32 0.32 0.32 0.32 0.32 0.32
0.21 0.19 0.21 0.21 0.21 0.19 0.21 0.21 0.21 0.23 0.23 0.23 0.23 0.23 0.21 0.21 0.21 0.23 0.23 0.23 0.23 0.21 0.21 0.21 0.21 0.21 0.23 0.21 0.21 0.23 0.25 0.23 0.21 0.21 0.19 0.17 0.17 0.19 0.21 0.21 0.21 0.21 0.21 0.21 0.21 0.23 0.23 0.23 0.25 0.25 0.25 0.25 0.25 0.25 0.25 0.27 0.27 0.27 0.27 0.27 0.27 0.27 0.27 0.28 0.28 0.28 0.28 0.28 0.28 0.30 0.30 0.30 0.30 0.30 0.32 0.32 0.32 0.32 0.32 0.32 0.32 0.32 0.32 0.32 0.32 0.32
0.21 0.21 0.21 0.21 0.21 0.21 0.23 0.23 0.23 0.25 0.25 0.25 0.25 0.25 0.25 0.23 0.25 0.25 0.25 0.23 0.23 0.23 0.23 0.23 0.21 0.21 0.21 0.21 0.21 0.23 0.23 0.23 0.21 0.21 0.19 0.17 0.17 0.19 0.21 0.21 0.21 0.21 0.19 0.21 0.21 0.23 0.23 0.23 0.23 0.25 0.25 0.25 0.25 0.25 0.25 0.25 0.27 0.27 0.27 0.27 0.27 0.27 0.28 0.28 0.28 0.28 0.28 0.30 0.30 0.30 0.30 0.30 0.32 0.32 0.32 0.32 0.32 0.32 0.32 0.32 0.32 0.32 0.32 0.32 0.32 0.32
0.23 0.23 0.23 0.23 0.23 0.23 0.25 0.25 0.25 0.25 0.27 0.27 0.27 0.27 0.27 0.27 0.27 0.27 0.27 0.25 0.25 0.23 0.23 0.21 0.21 0.21 0.19 0.19 0.19 0.21 0.21 0.21 0.23 0.23 0.21 0.19 0.17 0.19 0.21 0.21 0.21 0.21 0.19 0.21 0.23 0.23 0.23 0.23 0.23 0.25 0.25 0.25 0.25 0.25 0.25 0.25 0.27 0.27 0.27 0.27 0.27 0.27 0.28 0.28 0.28 0.28 0.30 0.30 0.30 0.30 0.32 0.32 0.32 0.32 0.32 0.32 0.34 0.34 0.34 0.34 0.34 0.34 0.34 0.34 0.34 0.34
0.23 0.23 0.23 0.25 0.25 0.25 0.27 0.27 0.27 0.27 0.27 0.28 0.28 0.28 0.28 0.28 0.28 0.27 0.27 0.25 0.23 0.21 0.19 0.19 0.19 0.17 0.17 0.17 0.19 0.19 0.21 0.21 0.23 0.21 0.21 0.19 0.19 0.19 0.19 0.21 0.21 0.21 0.19 0.21 0.23 0.23 0.23 0.23 0.23 0.25 0.25 0.25 0.25 0.25 0.25 0.27 0.27 0.27 0.27 0.27 0.27 0.27 0.28 0.28 0.28 0.30 0.30 0.30 0.30 0.32 0.32 0.32 0.32 0.32 0.34 0.34 0.34 0.34 0.34 0.34 0.34 0.34 0.34 0.34 0.34 0.34
0.25 0.25 0.25 0.25 0.25 0.27 0.27 0.27 0.28 0.28 0.28 0.28 0.27 0.27 0.27 0.27 0.25 0.23 0.23 0.23 0.21 0.19 0.19 0.17 0.17 0.15 0.17 0.17 0.17 0.17 0.19 0.21 0.21 0.21 0.21 0.19 0.19 0.19 0.21 0.21 0.21 0.21 0.21 0.21 0.23 0.23 0.23 0.23 0.23 0.23 0.23 0.25 0.25 0.25 0.25 0.25 0.27 0.27 0.27 0.27 0.27 0.27 0.28 0.28 0.30 0.30 0.30 0.32 0.32 0.32 0.32 0.32 0.34 0.34 0.34 0.34 0.34 0.34 0.34 0.34 0.34 0.34 0.34 0.34 0.34 0.34
0.23 0.25 0.25 0.25 0.27 0.27 0.27 0.27 0.27 0.27 0.27 0.25 0.25 0.25 0.25 0.25 0.23 0.21 0.19 0.19 0.19 0.19 0.17 0.17 0.15 0.15 0.15 0.15 0.17 0.17 0.19 0.21 0.21 0.21 0.21 0.21 0.19 0.19 0.19 0.21 0.21 0.21 0.21 0.21 0.21 0.23 0.23 0.23 0.23 0.23 0.23 0.25 0.25 0.25 0.25 0.25 0.27 0.27 0.27 0.27 0.28 0.28 0.28 0.30 0.30 0.30 0.32 0.32 0.32 0.32 0.34 0.34 0.34 0.34 0.34 0.34 0.34 0.34 0.34 0.34 0.34 0.34 0.34 0.34 0.34 0.34
0.25 0.25 0.25 0.25 0.27 0.27 0.25 0.25 0.25 0.25 0.25 0.23 0.23 0.23 0.23 0.23 0.21 0.19 0.19 0.19 0.19 0.17 0.17 0.15 0.15 0.15 0.15 0.15 0.15 0.17 0.19 0.19 0.21 0.21 0.23 0.21 0.21 0.19 0.19 0.21 0.21 0.21 0.21 0.21 0.21 0.21 0.23 0.23 0.23 0.23 0.23 0.23 0.25 0.25 0.25 0.25 0.27 0.27 0.27 0.27 0.28 0.28 0.28 0.30 0.30 0.30 0.32 0.32 0.32 0.34 0.34 0.34 0.34 0.34 0.34 0.34 0.34 0.34 0.34 0.34 0.34 0.34 0.34 0.34 0.34 0.34
0.25 0.25 0.25 0.27 0.25 0.23 0.23 0.23 0.23 0.23 0.23 0.21 0.23 0.23 0.23 0.23 0.21 0.19 0.19 0.21 0.19 0.17 0.17 0.15 0.15 0.15 0.15 0.17 0.17 0.17 0.19 0.19 0.21 0.23 0.23 0.21 0.19 0.19 0.21 0.21 0.21 0.21 0.21 0.21 0.21 0.21 0.21 0.21 0.21 0.23 0.23 0.23 0.23 0.25 0.25 0.25 0.25 0.27 0.27 0.27 0.28 0.28 0.28 0.30 0.30 0.32 0.32 0.32 0.34 0.34 0.34 0.34 0.34 0.34 0.34 0.34 0.34 0.34 0.34 0.34 0.34 0.34 0.34 0.34 0.34 0.34
0.25 0.25 0.25 0.25 0.23 0.21 0.21 0.21 0.21 0.21 0.21 0.21 0.23 0.23 0.23 0.23 0.21 0.21 0.21 0.21 0.19 0.19 0.17 0.17 0.15 0.15 0.17 0.17 0.17 0.17 0.17 0.19 0.21 0.23 0.23 0.21 0.19 0.19 0.21 0.21 0.21 0.21 0.23 0.21 0.21 0.19 0.19 0.21 0.21 0.23 0.23 0.23 0.23 0.25 0.25 0.25 0.27 0.27 0.27 0.28 0.28 0.30 0.30 0.32 0.32 0.32 0.34 0.34 0.34 0.34 0.36 0.36 0.36 0.34 0.36 0.34 0.34 0.34 0.36 0.34 0.36 0.36 0.34 0.34 0.34 0.34
0.21 0.21 0.21 0.21 0.21 0.21 0.21 0.21 0.21 0.21 0.21 0.21 0.21 0.23 0.23 0.23 0.21 0.21 0.21 0.21 0.19 0.19 0.17 0.17 0.17 0.17 0.17 0.17 0.15 0.15 0.15 0.17 0.21 0.23 0.25 0.23 0.21 0.21 0.21 0.21 0.21 0.21 0.23 0.23 0.21 0.19 0.17 0.19 0.19 0.21 0.23 0.23 0.23 0.25 0.25 0.27 0.27 0.27 0.28 0.28 0.30 0.30 0.32 0.32 0.34 0.34 0.34 0.34 0.36 0.36 0.36 0.36 0.36 0.36 0.36 0.36 0.36 0.36 0.36 0.36 0.36 0.36 0.36 0.34 0.34 0.34
0.21 0.19 0.19 0.19 0.19 0.19 0.19 0.19 0.19 0.21 0.21 0.21 0.21 0.21 0.21 0.21 0.21 0.21 0.21 0.21 0.21 0.19 0.19 0.17 0.17 0.17 0.17 0.17 0.17 0.15 0.17 0.19 0.21 0.23 0.25 0.23 0.21 0.21 0.21 0.21 0.21 0.23 0.23 0.23 0.21 0.19 0.17 0.17 0.19 0.21 0.23 0.23 0.23 0.25 0.25 0.27 0.27 0.28 0.28 0.30 0.30 0.32 0.32 0.34 0.34 0.34 0.34 0.34 0.36 0.36 0.36 0.36 0.36 0.36 0.36 0.36 0.36 0.36 0.36 0.36 0.36 0.36 0.36 0.34 0.34 0.34
0.19 0.19 0.19 0.19 0.19 0.19 0.19 0.19 0.19 0.21 0.21 0.21 0.21 0.21 0.21 0.21 0.21 0.21 0.21 0.21 0.21 0.21 0.19 0.19 0.19 0.17 0.19 0.17 0.17 0.17 0.19 0.19 0.21 0.23 0.25 0.23 0.23 0.21 0.23 0.23 0.21 0.23 0.23 0.23 0.23 0.21 0.19 0.19 0.21 0.21 0.23 0.23 0.25 0.25 0.27 0.28 0.28 0.30 0.30 0.30 0.32 0.32 0.32 0.34 0.34 0.34 0.34 0.34 0.36 0.36 0.36 0.36 0.36 0.36 0.36 0.36 0.36 0.36 0.36 0.36 0.36 0.36 0.36 0.36 0.34 0.34
0.19 0.19 0.19 0.19 0.19 0.19 0.19 0.19 0.19 0.21 0.21 0.21 0.21 0.21 0.21 0.21 0.21 0.21 0.21 0.21 0.21 0.21 0.21 0.19 0.19 0.19 0.19 0.19 0.17 0.19 0.19 0.21 0.23 0.25 0.25 0.25 0.23 0.23 0.23 0.23 0.23 0.23 0.23 0.23 0.21 0.21 0.21 0.21 0.21 0.21 0.21 0.23 0.23 0.25 0.27 0.27 0.28 0.30 0.30 0.32 0.32 0.32 0.32 0.34 0.34 0.34 0.34 0.36 0.36 0.36 0.36 0.36 0.36 0.36 0.36 0.36 0.36 0.36 0.36 0.36 0.36 0.36 0.36 0.36 0.36 0.34
0.17 0.17 0.17 0.17 0.19 0.19 0.19 0.19 0.19 0.19 0.19 0.21 0.21 0.21 0.21 0.21 0.21 0.21 0.21 0.21 0.21 0.21 0.21 0.21 0.21 0.19 0.21 0.19 0.19 0.19 0.19 0.21 0.23 0.25 0.25 0.25 0.25 0.23 0.23 0.23 0.23 0.23 0.23 0.21 0.21 0.21 0.21 0.21 0.21 0.21 0.21 0.23 0.23 0.25 0.27 0.28 0.30 0.32 0.32 0.32 0.34 0.34 0.34 0.34 0.34 0.34 0.34 0.34 0.36 0.36 0.36 0.36 0.36 0.36 0.36 0.36 0.36 0.36 0.36 0.36 0.36 0.36 0.36 0.36 0.36 0.36
0.17 0.17 0.17 0.17 0.17 0.19 0.19 0.19 0.19 0.19 0.19 0.19 0.21 0.21 0.21 0.21 0.21 0.21 0.21 0.21 0.21 0.21 0.21 0.21 0.21 0.23 0.23 0.21 0.21 0.21 0.21 0.23 0.25 0.25 0.27 0.25 0.25 0.23 0.23 0.23 0.23 0.23 0.23 0.23 0.23 0.21 0.21 0.21 0.23 0.23 0.23 0.23 0.23 0.25 0.27 0.28 0.30 0.32 0.32 0.32 0.34 0.34 0.34 0.34 0.34 0.34 0.34 0.34 0.34 0.34 0.34 0.34 0.34 0.34 0.36 0.36 0.36 0.36 0.36 0.36 0.36 0.36 0.36 0.36 0.36 0.36
0.17 0.17 0.17 0.17 0.19 0.19 0.19 0.19 0.19 0.19 0.19 0.19 0.19 0.21 0.21 0.21 0.21 0.21 0.21 0.21 0.21 0.21 0.21 0.23 0.23 0.23 0.23 0.23 0.23 0.23 0.23 0.25 0.25 0.25 0.27 0.27 0.27 0.25 0.25 0.25 0.25 0.25 0.23 0.23 0.23 0.23 0.23 0.23 0.23 0.23 0.23 0.23 0.25 0.25 0.27 0.28 0.30 0.32 0.32 0.32 0.34 0.34 0.34 0.34 0.34 0.34 0.34 0.32 0.32 0.32 0.32 0.32 0.32 0.32 0.34 0.34 0.34 0.34 0.34 0.36 0.36 0.36 0.36 0.36 0.36 0.34
0.17 0.17 0.17 0.19 0.19 0.19 0.19 0.19 0.19 0.19 0.19 0.19 0.19 0.21 0.21 0.21 0.21 0.21 0.21 0.21 0.21 0.21 0.21 0.23 0.23 0.23 0.23 0.23 0.23 0.25 0.25 0.25 0.25 0.25 0.27 0.27 0.27 0.27 0.25 0.25 0.25 0.25 0.25 0.25 0.25 0.25 0.23 0.23 0.23 0.23 0.23 0.25 0.27 0.27 0.28 0.30 0.30 0.32 0.32 0.32 0.34 0.34 0.34 0.34 0.34 0.34 0.32 0.30 0.30 0.30 0.30 0.30 0.30 0.30 0.30 0.30 0.30 0.32 0.30 0.32 0.32 0.34 0.34 0.34 0.34 0.34
0.17 0.17 0.17 0.19 0.19 0.19 0.19 0.19 0.19 0.19 0.21 0.21 0.21 0.21 0.21 0.21 0.21 0.21 0.21 0.21 0.21 0.21 0.23 0.23 0.23 0.23 0.23 0.23 0.23 0.25 0.25 0.25 0.27 0.27 0.27 0.27 0.27 0.27 0.27 0.25 0.25 0.27 0.27 0.27 0.27 0.25 0.23 0.23 0.23 0.25 0.25 0.25 0.27 0.28 0.28 0.30 0.30 0.32 0.32 0.32 0.32 0.32 0.34 0.34 0.32 0.32 0.30 0.28 0.28 0.28 0.28 0.28 0.28 0.28 0.28 0.28 0.28 0.28 0.27 0.28 0.30 0.32 0.32 0.32 0.32 0.32
0.17 0.17 0.17 0.19 0.19 0.19 0.19 0.19 0.19 0.19 0.21 0.21 0.21 0.21 0.21 0.21 0.21 0.21 0.21 0.21 0.21 0.21 0.23 0.23 0.23 0.23 0.23 0.23 0.23 0.23 0.25 0.25 0.25 0.27 0.27 0.27 0.27 0.27 0.27 0.27 0.27 0.27 0.27 0.27 0.27 0.27 0.27 0.25 0.27 0.27 0.27 0.27 0.28 0.28 0.30 0.30 0.32 0.32 0.32 0.32 0.30 0.30 0.30 0.32 0.30 0.28 0.28 0.28 0.27 0.27 0.27 0.27 0.27 0.27 0.27 0.27 0.27 0.27 0.27 0.27 0.27 0.28 0.28 0.28 0.30 0.30
0.17 0.17 0.19 0.19 0.19 0.19 0.21 0.21 0.21 0.21 0.21 0.21 0.21 0.21 0.21 0.19 0.19 0.19 0.19 0.21 0.21 0.21 0.23 0.23 0.23 0.23 0.21 0.23 0.23 0.23 0.25 0.25 0.25 0.27 0.27 0.27 0.27 0.27 0.27 0.27 0.27 0.27 0.27 0.27 0.27 0.27 0.27 0.27 0.27 0.28 0.28 0.28 0.30 0.30 0.30 0.30 0.32 0.32 0.30 0.30 0.28 0.28 0.28 0.28 0.28 0.28 0.28 0.27 0.27 0.27 0.27 0.27 0.27 0.27 0.27 0.27 0.27 0.27 0.27 0.27 0.27 0.27 0.27 0.28 0.28 0.28
0.19 0.19 0.19 0.19 0.19 0.19 0.21 0.21 0.21 0.21 0.21 0.21 0.19 0.19 0.19 0.19 0.19 0.19 0.19 0.19 0.21 0.21 0.21 0.21 0.21 0.21 0.19 0.21 0.23 0.23 0.25 0.25 0.25 0.27 0.27 0.27 0.27 0.27 0.28 0.28 0.28 0.28 0.27 0.27 0.27 0.28 0.28 0.28 0.28 0.30 0.30 0.30 0.30 0.32 0.30 0.30 0.30 0.32 0.32 0.30 0.28 0.27 0.27 0.27 0.27 0.27 0.27 0.27 0.25 0.25 0.25 0.25 0.25 0.25 0.25 0.25 0.27 0.27 0.27 0.27 0.27 0.27 0.27 0.27 0.27 0.28
0.19 0.19 0.19 0.19 0.21 0.21 0.21 0.21 0.21 0.21 0.19 0.19 0.19 0.19 0.19 0.19 0.19 0.19 0.19 0.19 0.19 0.21 0.21 0.21 0.21 0.21 0.19 0.19 0.19 0.21 0.21 0.23 0.25 0.25 0.27 0.27 0.27 0.27 0.27 0.28 0.28 0.28 0.28 0.27 0.27 0.28 0.28 0.30 0.30 0.32 0.32 0.32 0.32 0.32 0.30 0.30 0.30 0.30 0.30 0.28 0.27 0.23 0.23 0.23 0.25 0.25 0.25 0.25 0.25 0.25 0.25 0.25 0.25 0.25 0.25 0.25 0.25 0.27 0.27 0.27 0.27 0.27 0.28 0.28 0.28 0.28
0.19 0.19 0.19 0.19 0.19 0.21 0.21 0.19 0.19 0.19 0.19 0.19 0.19 0.19 0.19 0.19 0.19 0.19 0.19 0.19 0.19 0.21 0.21 0.21 0.21 0.19 0.19 0.19 0.19 0.21 0.21 0.23 0.25 0.25 0.27 0.27 0.27 0.28 0.28 0.28 0.28 0.28 0.28 0.28 0.28 0.28 0.30 0.30 0.32 0.34 0.34 0.34 0.32 0.32 0.30 0.30 0.28 0.27 0.27 0.27 0.25 0.23 0.23 0.21 0.21 0.23 0.23 0.23 0.23 0.23 0.25 0.25 0.25 0.25 0.25 0.25 0.25 0.25 0.27 0.27 0.27 0.27 0.28 0.28 0.28 0.28
0.19 0.19 0.19 0.19 0.19 0.19 0.19 0.19 0.19 0.19 0.19 0.19 0.19 0.19 0.19 0.19 0.21 0.21 0.19 0.19 0.19 0.21 0.21 0.21 0.19 0.19 0.17 0.19 0.19 0.19 0.21 0.23 0.23 0.25 0.27 0.27 0.27 0.28 0.28 0.28 0.28 0.30 0.30 0.30 0.30 0.32 0.30 0.32 0.34 0.34 0.34 0.36 0.34 0.32 0.30 0.30 0.27 0.25 0.25 0.25 0.23 0.23 0.23 0.23 0.23 0.23 0.23 0.23 0.23 0.23 0.23 0.25 0.23 0.23 0.23 0.23 0.23 0.25 0.25 0.25 0.25 0.27 0.27 0.27 0.28 0.28
0.19 0.19 0.19 0.19 0.19 0.19 0.19 0.19 0.19 0.19 0.17 0.17 0.19 0.19 0.19 0.19 0.21 0.21 0.21 0.21 0.21 0.21 0.21 0.21 0.19 0.19 0.17 0.19 0.19 0.19 0.21 0.21 0.23 0.23 0.25 0.25 0.27 0.27 0.28 0.28 0.30 0.30 0.30 0.30 0.32 0.34 0.34 0.34 0.34 0.36 0.34 0.34 0.32 0.30 0.28 0.27 0.25 0.23 0.23 0.23 0.23 0.21 0.21 0.23 0.23 0.23 0.23 0.23 0.23 0.23 0.23 0.23 0.23 0.23 0.23 0.21 0.23 0.23 0.25 0.25 0.25 0.27 0.27 0.27 0.27 0.28
0.19 0.19 0.19 0.19 0.19 0.19 0.19 0.19 0.17 0.17 0.17 0.17 0.19 0.19 0.19 0.19 0.19 0.21 0.21 0.21 0.21 0.21 0.19 0.19 0.19 0.19 0.19 0.19 0.19 0.19 0.21 0.21 0.21 0.23 0.23 0.25 0.27 0.27 0.28 0.28 0.30 0.32 0.32 0.32 0.34 0.36 0.36 0.36 0.36 0.36 0.34 0.32 0.30 0.27 0.27 0.25 0.23 0.21 0.21 0.21 0.21 0.21 0.21 0.21 0.21 0.23 0.23 0.23 0.23 0.23 0.23 0.23 0.23 0.21 0.21 0.21 0.21 0.23 0.23 0.25 0.25 0.27 0.27 0.27 0.28 0.28
0.19 0.19 0.19 0.19 0.17 0.17 0.17 0.17 0.17 0.17 0.17 0.17 0.17 0.19 0.19 0.19 0.21 0.21 0.21 0.21 0.21 0.21 0.19 0.19 0.19 0.19 0.19 0.19 0.19 0.21 0.21 0.21 0.21 0.23 0.23 0.25 0.27 0.27 0.28 0.28 0.30 0.32 0.34 0.34 0.36 0.36 0.38 0.38 0.36 0.36 0.36 0.32 0.28 0.25 0.23 0.23 0.23 0.21 0.21 0.21 0.21 0.21 0.21 0.21 0.21 0.23 0.23 0.23 0.23 0.23 0.23 0.23 0.23 0.21 0.21 0.21 0.21 0.21 0.21 0.23 0.25 0.27 0.27 0.28 0.28 0.28
0.19 0.19 0.19 0.19 0.17 0.17 0.17 0.17 0.17 0.17 0.17 0.17 0.17 0.19 0.19 0.21 0.21 0.21 0.21 0.21 0.21 0.19 0.19 0.19 0.19 0.19 0.19 0.19 0.19 0.21 0.21 0.21 0.23 0.23 0.23 0.25 0.27 0.27 0.27 0.28 0.28 0.30 0.32 0.34 0.34 0.34 0.36 0.36 0.36 0.34 0.34 0.30 0.27 0.25 0.23 0.21 0.21 0.21 0.21 0.21 0.21 0.21 0.21 0.21 0.21 0.21 0.23 0.23 0.23 0.23 0.23 0.23 0.23 0.23 0.21 0.21 0.21 0.21 0.21 0.23 0.25 0.25 0.27 0.28 0.28 0.28
0.19 0.19 0.19 0.19 0.17 0.17 0.17 0.17 0.17 0.17 0.17 0.17 0.17 0.19 0.19 0.19 0.21 0.21 0.21 0.21 0.19 0.19 0.19 0.19 0.19 0.19 0.19 0.19 0.19 0.21 0.21 0.21 0.23 0.23 0.23 0.25 0.25 0.27 0.27 0.28 0.28 0.30 0.30 0.32 0.32 0.32 0.34 0.34 0.34 0.32 0.32 0.30 0.27 0.25 0.23 0.21 0.21 0.21 0.21 0.21 0.21 0.21 0.21 0.21 0.21 0.21 0.23 0.23 0.23 0.23 0.23 0.23 0.23 0.23 0.23 0.21 0.21 0.21 0.21 0.21 0.23 0.25 0.27 0.28 0.28 0.28
0.19 0.19 0.19 0.19 0.19 0.17 0.17 0.17 0.17 0.17 0.17 0.17 0.19 0.19 0.19 0.19 0.19 0.21 0.21 0.19 0.19 0.19 0.19 0.19 0.19 0.19 0.19 0.19 0.19 0.21 0.21 0.23 0.23 0.23 0.23 0.25 0.27 0.27 0.28 0.28 0.28 0.30 0.30 0.30 0.30 0.30 0.30 0.30 0.28 0.27 0.27 0.28 0.27 0.27 0.25 0.23 0.21 0.21 0.21 0.21 0.21 0.21 0.21 0.21 0.21 0.23 0.23 0.23 0.23 0.25 0.25 0.25 0.25 0.23 0.23 0.23 0.21 0.21 0.21 0.21 0.23 0.25 0.27 0.28 0.28 0.28
Wind_Speed
26 26 26 27 27 27 27 27 28 28 29 29 29 30 30 31 31 31 31 31 32 32 32 32 32 32 33 33 33 34 34 34 35 35 35 36 36 36 37 37 38 38 38 39 39 39 40 40 40 40 40 40 41 41 41 41 41 41 41 42 42 42 42 42 43 43 43 43 43 43 43 44 44 44 44 44 44 44 44 44 44 44 43 43 43 43
26 26 27 27 27 27 28 28 28 29 29 30 30 30 30 31 31 31 31 32 32 32 32 32 33 33 33 33 34 34 35 35 35 36 36 36 37 37 38 38 38 39 39 39 40 40 40 40 40 40 40 41 41 41 41 41 41 41 42 42 42 42 43 43 43 43 44 44 44 44 44 44 44 44 44 45 45 45 45 45 45 45 44 44 44 44
27 27 27 27 27 28 28 28 29 29 29 30 30 31 31 31 31 31 31 32 32 32 33 33 33 33 34 34 34 35 35 36 36 36 37 37 38 38 38 39 39 39 40 40 40 40 40 40 40 40 40 41 41 41 41 41 41 42 42 42 42 43 43 43 44 44 44 45 45 45 45 45 45 45 45 45 45 45 45 45 46 46 46 45 45 45
27 27 28 28 28 28 29 29 29 30 30 30 31 31 31 31 31 31 32 32 32 33 33 33 34 34 34 35 35 35 36 36 37 37 38 38 38 39 39 39 39 40 40 40 40 40 41 41 41 41 41 41 41 41 41 41 42 42 42 43 43 44 44 44 45 45 45 45 46 46 46 46 46 46 46 46 46 46 46 46 46 46 46 46 46 46
27 28 28 28 29 29 29 29 30 30 31 31 31 31 31 31 31 32 32 33 33 33 34 34 34 35 35 35 36 36 37 37 38 38 38 39 39 39 39 40 40 40 40 40 41 41 41 41 41 41 41 41 41 41 42 42 42 43 43 44 44 44 45 45 46 46 46 46 47 47 47 47 47 47 47 47 47 47 47 47 47 47 47 47 47 47
28 28 29 29 29 30 30 30 30 31 31 31 31 31 32 32 32 32 33 33 33 33 34 34 35 35 36 36 37 37 38 38 39 39 39 39 40 40 40 40 40 40 41 41 41 41 41 41 41 41 41 41 42 42 42 43 43 44 44 45 45 45 46 46 47 47 47 47 48 48 48 48 48 48 48 48 48 48 48 48 48 48 48 48 48 48
29 29 29 30 30 30 30 30 31 31 31 31 32 32 32 32 32 33 33 33 34 34 35 35 36 36 37 37 37 38 39 39 39 40 40 40 40 40 40 40 41 41 41 41 42 42 42 42 42 42 42 42 42 43 43 44 44 45 45 46 46 47 47 47 48 48 48 49 49 49 49 49 49 49 49 49 49 49 49 49 49 49 48 48 48 48
30 30 30 30 31 31 31 31 31 31 31 32 32 33 33 33 33 33 34 34 34 35 35 36 36 37 37 38 38 39 39 39 40 40 40 40 40 40 40 41 41 41 42 42 42 42 42 42 42 42 43 43 43 44 44 45 45 46 47 47 48 48 48 49 49 49 49 50 50 50 50 50 50 50 50 50 50 50 50 50 50 50 49 49 49 49
30 31 31 31 31 31 31 31 31 31 32 32 33 33 34 34 34 34 35 35 35 35 36 36 37 37 38 38 39 39 40 40 40 40 40 40 40 40 41 41 42 42 42 42 43 43 43 43 43 43 43 44 44 45 46 46 47 47 48 48 49 49 50 50 50 50 51 51 51 51 51 51 51 51 51 51 51 51 51 51 51 50 50 50 50 50
31 31 31 31 31 31 32 32 32 32 32 33 33 34 34 35 35 36 36 36 36 36 36 37 38 38 39 39 39 40 40 40 40 40 40 41 41 41 42 42 42 43 43 43 43 43 43 43 44 44 44 45 45 46 47 47 48 49 49 50 50 50 51 51 51 51 52 52 52 52 52 52 52 52 52 52 52 51 51 51 51 51 51 51 51 51
31 31 31 31 31 32 32 32 33 33 33 34 34 34 35 35 35 36 37 37 37 37 37 38 38 39 39 40 40 40 40 40 40 41 41 41 41 42 42 43 43 43 44 44 44 44 44 44 44 45 45 46 46 47 48 48 49 50 50 51 51 51 52 52 52 52 53 53 53 53 53 53 52 52 52 52 52 52 52 52 52 52 52 52 52 52
31 31 31 31 32 32 32 33 33 33 34 34 34 34 35 35 36 36 37 38 39 39 39 39 39 39 39 40 40 40 40 40 40 40 40 41 42 42 43 43 43 44 44 44 44 44 44 45 45 45 46 47 47 48 49 49 50 50 51 52 52 52 53 53 53 53 53 53 53 53 53 53 53 53 53 53 53 53 52 52 52 52 52 52 52 52
31 31 31 32 32 32 32 33 33 33 34 34 34 35 35 36 37 37 38 39 39 39 40 40 40 40 40 40 40 40 40 40 40 40 40 41 41 42 42 43 43 44 44 44 44 44 44 45 45 46 46 47 48 49 49 50 51 51 52 52 53 53 53 53 53 54 54 54 54 54 53 53 53 53 53 53 53 53 53 53 53 53 53 53 53 53
31 31 32 32 32 32 33 33 33 33 34 34 35 35 36 37 38 38 39 39 40 40 40 40 40 40 40 40 39 39 40 40 40 41 41 41 42 42 43 43 43 43 44 44 43 44 45 45 45 46 47 48 48 49 50 51 51 52 52 53 53 53 53 53 54 54 54 54 53 53 53 53 53 53 53 53 53 54 54 54 54 54 54 54 54 53
31 31 32 32 32 32 33 33 33 34 34 35 35 36 37 38 38 38 39 40 40 40 40 41 41 41 40 39 39 39 39 40 41 41 42 42 42 43 43 44 44 44 44 44 44 44 45 45 46 46 47 48 49 50 50 51 52 52 52 53 53 53 53 53 53 53 53 53 53 53 53 53 53 53 53 53 54 54 54 54 54 54 54 54 54 54
31 32 32 32 32 33 33 33 34 34 35 35 36 37 37 38 38 39 39 40 40 40 40 41 41 40 40 39 39 39 39 40 41 42 43 43 43 43 44 44 44 44 44 44 44 44 45 46 47 47 48 49 50 51 51 51 52 52 52 53 53 53 53 53 53 53 53 53 53 53 53 53 53 53 53 53 53 54 54 54 54 55 55 55 55 55
32 32 32 32 33 33 33 34 34 35 35 36 36 37 37 38 38 39 39 40 40 40 40 40 40 40 40 40 40 39 40 41 42 43 44 44 44 44 44 44 44 45 45 44 44 45 45 46 47 48 49 50 50 51 52 52 52 53 53 53 53 53 53 53 53 52 52 52 52 52 52 52 52 52 53 53 53 53 54 54 54 55 55 55 55 55
32 32 32 33 33 34 34 34 35 35 36 36 36 37 37 38 38 39 39 40 40 40 40 40 40 40 40 40 40 41 41 42 43 44 45 45 45 45 45 44 45 45 45 45 45 46 46 47 48 49 50 51 51 52 52 53 53 53 54 53 53 53 53 52 52 52 52 51 51 51 51 52 52 52 52 53 53 53 54 54 54 55 55 55 56 56
32 32 33 33 34 34 34 35 35 35 35 36 36 37 38 38 39 39 40 40 40 41 41 41 41 41 41 41 42 42 43 43 44 45 46 46 46 45 44 44 45 45 45 46 46 46 47 48 49 50 51 52 52 53 53 54 54 54 54 53 53 53 52 52 51 51 51 51 51 51 51 52 52 52 53 53 53 53 54 54 54 55 55 55 56 56
32 33 33 33 34 34 34 35 35 35 35 36 37 37 38 39 39 40 40 40 41 41 41 42 42 42 42 43 43 44 44 44 45 46 46 47 46 45 44 44 45 45 46 46 47 47 48 49 50 51 52 53 53 53 54 54 54 54 53 53 53 52 52 51 51 51 51 51 51 52 52 52 52 53 53 53 54 54 54 54 55 55 55 55 56 56
33 33 33 33 34 34 34 35 35 35 36 37 37 38 39 39 40 40 41 41 42 42 42 42 43 43 43 44 44 45 45 45 45 46 46 46 46 45 44 44 45 46 47 47 48 48 49 50 51 52 52 53 53 54 54 54 54 54 53 53 52 52 52 51 51 51 51 52 52 52 53 53 53 54 54 54 54 55 55 55 55 55 55 55 56 56
33 33 33 33 34 34 35 35 36 36 37 37 38 38 39 40 40 41 41 42 42 43 43 43 43 44 44 45 45 46 46 45 45 45 46 46 46 46 45 45 46 47 48 49 49 50 50 51 51 52 53 54 54 54 54 54 54 53 53 52 52 52 52 51 51 52 52 52 53 53 53 54 54 54 55 55 55 55 55 56 56 56 56 56 56 56
33 34 34 34 34 34 35 35 36 36 37 37 38 39 39 40 41 41 42 43 43 44 44 45 45 45 45 45 45 45 45 44 44 44 45 45 46 46 46 46 47 48 49 49 50 50 51 51 52 53 54 54 54 54 54 54 53 53 53 52 52 52 52 52 52 52 53 53 53 54 54 55 55 55 55 55 56 56 56 56 56 56 56 56 56 56
33 34 34 34 34 35 35 36 36 37 37 38 38 39 40 41 41 42 43 43 44 45 45 45 45 45 45 44 44 44 44 44 44 44 44 45 46 47 47 47 48 49 50 50 50 51 52 52 53 53 54 54 54 54 54 54 53 53 52 52 52 52 52 52 53 53 54 54 54 55 55 55 55 56 56 56 56 56 56 56 56 56 56 56 56 56
34 34 34 34 35 35 36 36 37 37 38 38 39 40 41 42 42 43 44 44 45 45 45 45 45 44 44 44 44 44 43 43 43 44 44 45 47 48 47 47 48 50 51 51 51 52 52 53 53 54 54 54 54 54 54 53 53 52 52 52 52 52 53 53 53 54 54 55 55 55 55 56 56 56 56 56 56 56 56 57 57 57 57 57 57 57
34 35 35 35 36 37 37 38 38 39 39 40 40 41 42 42 43 44 44 44 44 44 44 44 44 44 44 44 44 44 44 43 43 44 44 46 47 48 48 48 49 50 51 52 52 52 53 54 54 54 53 53 53 53 53 53 52 52 52 52 52 53 53 54 54 54 55 55 55 55 55 56 56 56 56 56 56 56 56 57 57 57 57 57 57 57
35 36 36 36 37 37 37 38 38 39 40 41 41 42 42 43 43 43 44 44 44 44 44 44 44 44 44 44 44 44 44 44 44 44 45 46 47 48 49 49 49 51 52 53 53 53 54 54 54 54 53 53 52 52 52 52 52 52 52 52 53 53 54 54 54 55 55 55 55 55 55 55 55 55 55 55 55 56 56 56 56 56 57 57 56 57
35 36 36 36 36 37 37 38 39 40 40 41 42 42 42 42 42 43 43 43 44 44 44 43 43 43 44 44 44 44 44 44 44 44 45 46 47 48 49 50 50 51 53 54 54 54 54 54 54 54 53 52 51 51 51 51 52 52 53 53 54 54 55 55 55 55 54 54 54 54 54 54 53 53 53 53 53 53 54 54 54 54 55 54 54 54
35 35 36 36 36 37 38 39 39 40 41 41 41 42 42 41 42 42 43 44 44 44 44 44 44 44 44 45 45 45 44 44 44 44 45 46 47 48 49 50 51 52 53 54 55 55 54 53 52 52 52 52 51 51 51 52 52 53 54 54 55 55 54 54 54 53 53 52 52 51 51 51 51 50 50 50 50 50 50 51 51 51 50 51 51 51
34 35 35 36 37 38 38 39 39 40 40 41 41 41 41 41 42 42 43 43 43 43 44 44 44 44 44 45 45 44 43 43 43 44 45 46 48 49 50 51 51 52 52 53 54 54 54 53 52 51 51 51 51 51 52 52 53 53 54 54 54 53 52 52 51 51 50 49 49 48 48 48 47 47 47 47 47 47 47 47 47 47 46 47 47 48
34 35 35 36 37 38 38 39 39 40 40 40 41 41 41 41 42 42 43 43 43 43 43 44 44 44 44 44 43 43 43 44 44 45 46 47 48 50 50 51 52 52 52 52 52 52 54 53 52 52 51 52 52 52 53 53 53 53 52 52 51 50 50 49 48 48 47 47 46 46 45 45 44 44 44 44 44 44 44 44 44 44 43 44 44 44
35 35 36 36 37 37 38 38 39 39 39 40 40 41 41 42 42 42 42 42 43 43 43 44 44 44 44 44 43 43 44 45 46 47 47 48 49 50 51 51 52 53 53 53 52 52 53 53 53 53 52 52 53 53 53 53 52 51 51 50 49 48 47 46 46 45 44 44 43 43 43 42 42 42 42 42 42 42 42 43 42 42 41 42 42 42
35 36 36 37 37 37 38 38 38 38 39 39 40 40 41 41 42 42 42 42 42 42 43 43 44 44 44 44 45 45 45 46 47 48 48 48 49 50 51 52 52 53 54 54 53 53 53 53 54 55 54 54 53 53 53 52 51 50 48 47 47 46 45 44 43 42 42 41 41 41 41 40 40 40 40 40 40 41 41 41 41 41 41 41 41 41
36 36 36 37 37 37 37 38 38 38 39 39 40 40 41 41 42 42 42 42 42 42 42 43 43 44 44 45 45 46 46 46 47 48 49 49 50 51 52 52 53 53 54 54 54 54 54 54 55 55 55 55 54 53 52 50 49 47 46 45 45 44 43 42 41 40 40 39 39 39 39 38 39 39 39 39 39 39 39 40 40 40 40 40 40 40
36 36 36 36 37 37 37 37 38 38 39 39 40 40 41 41 41 42 42 42 42 42 42 43 43 43 44 45 45 46 47 47 47 48 49 49 50 51 52 53 53 53 53 53 53 53 54 54 55 55 55 55 54 52 50 48 46 45 44 43 43 42 41 41 40 39 39 38 38 38 38 37 38 38 38 38 38 39 39 39 40 40 40 40 40 40
36 36 36 36 37 37 37 37 38 38 39 39 40 40 41 41 41 42 42 42 42 42 43 43 43 43 44 44 45 46 47 47 48 49 49 50 50 51 52 53 53 53 53 53 54 54 54 55 55 55 55 53 52 50 48 46 44 43 43 42 42 41 40 40 39 39 39 39 38 38 38 38 38 38 38 39 39 40 40 40 40 41 41 41 41 41
35 36 36 36 36 37 37 37 38 38 39 39 40 40 41 41 41 42 42 42 42 42 43 43 43 44 44 44 45 46 47 48 48 49 50 50 51 51 52 53 53 53 53 53 54 54 54 55 55 54 53 51 49 47 46 45 44 43 42 42 41 40 40 39 39 39 39 40 40 39 39 39 39 39 39 40 40 41 41 41 41 41 42 42 42 42
35 36 36 36 36 37 37 37 38 38 39 39 40 40 41 41 41 42 42 42 42 42 42 43 43 44 45 45 46 46 47 48 49 50 50 51 51 51 52 52 53 52 52 53 53 54 54 53 52 51 49 48 47 46 46 45 44 43 42 41 41 40 40 40 40 40 40 41 41 41 41 41 40 40 40 40 40 40 41 41 41 42 42 42 42 43
35 35 36 36 36 37 37 38 38 39 39 40 40 41 41 41 42 42 42 42 42 42 42 42 43 43 44 45 46 47 47 48 49 50 50 50 50 50 51 52 52 52 53 53 53 53 52 51 50 48 47 46 46 46 45 44 43 42 42 41 41 40 40 40 40 41 41 41 42 42 42 42 41 41 41 41 41 41 41 41 41 41 42 42 42 42
35 35 36 36 36 37 37 38 38 39 39 40 41 41 41 41 41 41 41 41 41 42 42 43 43 44 44 45 45 46 47 48 49 49 50 50 50 50 50 51 51 52 52 52 52 52 51 50 49 47 46 45 45 45 44 43 42 42 42 41 41 40 41 41 41 42 42 43 43 43 43 43 42 42 42 42 42 42 42 41 42 42 42 42 42 42
35 36 36 36 37 37 38 38 39 39 40 40 40 40 40 40 40 40 41 41 41 41 42 42 43 43 44 44 45 45 46 47 48 49 49 49 50 50 50 50 51 51 52 52 52 50 49 47 47 46 45 45 45 44 44 43 42 42 42 42 42 43 43 43 43 43 43 43 43 43 43 43 43 43 42 42 42 42 42 42 42 42 43 43 43 42
35 36 36 36 37 37 38 38 39 39 39 39 40 40 39 39 40 40 40 41 41 41 41 42 43 43 44 44 44 45 46 47 48 48 49 49 49 49 49 50 50 51 51 51 50 49 47 46 45 44 44 44 44 43 43 43 43 42 42 43 44 44 45 44 43 42 42 42 42 42 42 42 42 42 42 42 42 42 42 43 43 43 43 43 43 43
36 36 36 37 37 37 38 38 39 39 39 39 39 39 39 39 39 40 40 41 41 41 42 42 43 43 44 44 45 45 45 46 47 48 48 48 48 49 49 49 50 50 49 49 48 47 46 45 44 43 43 43 43 43 43 43 43 43 43 43 43 44 43 43 42 42 41 41 41 41 41 41 41 42 42 42 42 42 42 42 43 43 43 43 44 44
36 36 36 37 37 37 38 38 38 38 38 38 39 39 39 39 39 40 40 40 41 41 42 42 43 43 44 44 45 46 46 46 46 47 47 48 48 48 49 49 49 49 48 46 45 45 44 43 42 42 42 42 42 42 43 43 44 43 43 43 43 42 42 42 42 42 41 41 40 40 40 40 40 41 41 41 41 41 41 41 42 42 43 43 43 44
36 36 36 37 37 37 37 38 38 38 38 38 38 38 38 38 39 39 40 40 41 41 42 42 43 43 44 44 45 46 46 47 46 46 46 47 48 48 48 48 48 47 46 44 43 42 42 42 41 41 41 41 42 42 43 43 44 43 43 42 42 41 41 41 41 40 40 39 39 39 39 39 39 40 40 40 40 40 40 41 41 41 42 42 43 43
35 36 36 36 37 37 37 37 38 38 38 38 38 38 38 38 38 39 39 40 41 41 42 42 42 43 44 45 46 46 47 47 47 46 46 46 47 47 47 47 46 45 43 42 41 40 40 40 41 41 41 42 42 42 42 42 42 42 41 41 40 39 39 39 39 38 38 38 37 37 37 38 38 38 38 39 39 39 39 40 40 40 41 41 42 42
35 36 36 36 37 37 37 37 37 37 37 37 37 37 38 38 38 39 39 40 40 41 42 42 42 43 44 45 45 46 47 47 47 47 47 47 47 47 46 46 45 43 41 40 40 39 39 39 40 40 40 41 41 42 41 41 40 39 39 39 38 37 37 37 36 36 36 36 36 36 36 36 36 37 37 37 38 38 38 38 38 39 39 40 40 41
35 35 36 36 36 36 36 36 36 36 37 37 37 37 37 38 38 39 39 40 40 41 41 42 42 43 44 45 45 46 46 47 47 47 47 47 47 47 46 44 43 41 40 39 39 38 38 38 38 39 39 40 40 40 40 39 38 37 37 36 36 36 35 35 35 34 34 34 34 35 35 35 35 35 36 36 36 36 36 36 37 37 37 38 38 39
35 35 36 36 36 36 36 36 36 36 36 36 37 37 37 37 38 39 39 40 40 41 41 42 42 43 44 45 45 46 46 47 47 47 47 47 47 46 45 44 42 40 39 39 38 38 37 37 37 37 37 37 38 38 38 37 36 35 35 34 34 34 34 33 33 33 32 33 33 33 33 33 34 34 35 35 35 35 35 35 35 35 36 36 36 36
35 35 35 35 35 35 35 35 35 36 36 36 36 37 37 37 38 38 39 39 40 40 41 42 43 43 44 45 45 46 46 46 46 46 46 46 46 45 44 42 41 40 39 38 37 37 36 36 36 35 35 34 34 35 35 35 35 34 33 32 32 32 32 32 31 31 31 31 32 32 32 32 33 33 33 34 34 34 34 34 34 34 34 34 34 34
35 35 35 35 34 35 35 35 35 35 35 36 36 37 37 37 38 38 39 39 40 40 41 42 42 43 44 45 45 45 45 46 46 46 46 46 45 44 42 41 40 39 38 37 36 36 35 34 34 33 33 32 32 32 32 33 33 32 31 31 30 30 30 30 31 31 31 31 31 31 31 31 31 32 32 32 32 32 32 32 32 31 31 31 31 32
Wind_Direction
288 289 290 291 292 292 292 293 294 295 295 296 296 297 297 297 297 298 298 298 298 298 298 298 298 298 298 298 298 298 298 297 297 297 296 296 296 296 295 295 295 295 294 294 294 293 293 292 292 291 291 290 290 290 289 289 289 288 288 287 287 287 286 286 285 285 284 284 283 283 282 281 281 280 279 278 277 276 275 274 273 272 271 270 269 268
288 289 290 291 292 292 293 294 294 295 296 296 297 297 297 297 298 298 298 299 299 299 299 299 299 299 299 299 299 298 298 298 298 297 297 297 297 296 296 296 296 295 295 295 294 294 293 293 292 292 291 291 290 290 289 289 289 288 288 288 287 287 286 286 285 285 284 284 283 283 282 281 281 280 279 278 277 276 275 274 273 272 271 270 269 268
289 290 291 292 292 293 294 295 295 296 296 297 297 297 298 298 298 298 299 299 299 299 299 299 299 299 299 299 299 299 299 298 298 298 298 297 297 297 297 297 296 296 296 295 295 294 294 293 292 292 291 291 290 290 289 289 289 289 288 288 288 287 287 286 286 285 285 284 283 283 282 281 280 280 279 278 277 276 275 274 273 273 272 270 269 268
290 291 292 293 293 294 294 295 296 296 297 297 298 298 298 299 299 299 299 299 300 300 300 300 300 299 299 299 299 299 299 299 298 298 298 298 298 297 297 297 296 296 296 295 295 294 293 293 292 291 291 290 290 290 289 289 289 289 289 288 288 288 287 287 286 286 285 284 284 283 282 281 280 280 279 278 277 276 275 274 273 272 272 271 270 269
291 292 292 294 294 295 295 296 297 297 298 298 298 299 299 299 299 299 300 300 300 300 300 300 300 299 299 299 299 299 299 299 298 298 298 298 297 297 297 296 296 296 296 295 295 294 293 292 292 291 290 290 290 290 289 289 289 289 289 289 289 288 288 288 287 287 286 285 284 284 283 282 281 280 279 278 277 276 275 274 273 272 271 270 270 269
291 292 293 294 295 296 296 297 297 298 298 299 299 299 299 299 300 300 300 300 300 300 300 300 300 299 299 299 299 299 299 299 298 298 298 297 297 297 296 296 296 296 295 295 295 294 293 292 291 291 290 290 290 290 290 290 290 290 290 290 290 289 289 289 288 288 287 286 285 284 283 282 281 280 279 278 277 276 274 273 272 271 270 270 269 268
292 293 294 295 295 296 297 297 298 299 299 299 299 300 300 300 300 300 300 300 300 300 300 300 300 299 299 299 299 299 299 299 298 298 298 297 297 297 296 296 296 296 295 295 294 294 293 292 291 291 290 290 290 290 290 291 291 291 291 291 290 290 290 289 289 288 288 287 286 285 284 283 282 281 279 278 277 276 275 273 272 271 270 269 268 267
292 293 294 295 296 297 297 298 298 299 299 299 300 300 300 300 300 300 300 300 300 300 300 300 300 300 299 299 299 299 299 299 298 298 297 297 297 296 296 296 296 296 295 295 294 294 293 292 291 291 290 290 290 291 291 291 291 291 291 291 291 291 290 290 289 289 288 287 286 285 284 283 282 281 280 278 277 276 275 273 272 271 270 269 268 267
292 294 295 295 296 297 298 298 298 299 299 300 300 300 301 301 301 301 300 300 300 300 300 300 300 300 299 299 299 299 299 298 298 298 297 297 297 296 296 296 296 296 296 295 295 294 293 292 292 291 291 291 291 291 292 292 292 292 292 292 291 291 291 290 290 289 288 287 286 285 284 283 282 281 279 278 277 276 275 273 272 271 270 269 267 266
292 294 295 295 296 297 297 298 299 299 300 300 300 300 300 301 301 301 301 300 300 300 300 300 300 300 300 300 300 299 299 299 298 298 297 297 297 297 296 296 296 296 296 296 295 294 294 293 292 292 292 292 292 292 293 293 293 293 292 292 292 291 291 290 290 289 288 287 286 285 284 283 282 280 279 278 277 275 274 273 272 271 270 269 267 266
292 294 295 295 296 297 297 298 299 300 300 300 301 301 300 300 301 301 301 301 301 301 300 300 300 300 300 300 300 300 299 299 298 298 298 297 297 297 297 297 297 297 296 296 295 295 294 293 293 293 293 293 293 293 293 293 293 293 293 293 292 292 291 290 290 289 288 287 286 285 284 283 282 280 279 278 276 275 274 273 272 271 270 268 267 266
292 294 295 295 296 297 298 298 299 300 301 301 301 301 301 301 301 301 301 301 301 301 301 301 300 300 300 301 301 300 300 299 299 299 298 298 298 298 298 298 298 297 297 296 296 295 294 294 294 293 293 293 294 294 294 294 293 293 293 293 292 292 291 290 290 289 288 287 286 285 284 283 281 280 279 277 276 275 274 272 271 270 269 268 267 266
293 294 295 295 296 297 298 299 300 300 300 301 301 301 301 301 302 301 301 301 301 301 302 301 301 301 301 301 301 301 300 300 299 299 299 299 299 299 299 298 298 297 297 296 296 295 295 294 294 294 294 294 294 294 294 294 293 293 293 292 292 291 291 290 289 288 288 287 286 285 283 282 281 280 279 277 276 275 274 272 271 270 269 268 267 266
293 294 295 295 296 297 298 299 299 300 300 301 301 301 302 302 302 302 302 302 302 302 302 302 302 302 302 301 301 301 301 300 300 299 299 299 299 299 299 298 298 297 297 296 295 295 295 294 294 294 294 294 294 294 294 294 293 293 292 292 291 291 290 289 289 288 287 286 285 284 282 281 280 279 278 277 276 275 273 272 271 270 269 268 267 266
293 294 294 295 296 297 298 299 299 300 300 301 302 302 303 303 303 303 303 303 303 303 303 302 302 302 302 302 302 301 301 300 300 300 299 299 299 299 299 298 298 297 297 296 296 295 295 295 295 294 294 294 294 294 294 294 293 293 292 292 291 290 290 289 288 287 286 285 283 282 281 280 279 278 277 276 275 274 273 272 271 270 269 268 267 266
293 293 294 295 295 296 297 298 299 300 300 302 302 303 303 304 304 304 304 304 304 304 303 303 303 302 302 302 302 302 301 301 300 300 300 299 300 300 299 299 298 297 297 296 296 296 296 295 295 295 295 295 294 294 294 294 293 293 292 292 291 290 289 288 287 286 285 284 283 281 280 279 278 277 276 275 274 273 272 271 270 270 269 268 267 266
292 293 293 294 295 296 297 298 299 300 301 302 303 304 304 304 305 305 304 304 304 304 303 303 303 302 302 302 302 302 302 302 301 300 300 300 300 300 300 299 298 297 297 296 296 296 296 296 295 295 295 295 295 295 294 294 293 293 292 291 291 290 289 288 287 286 284 283 282 281 280 279 278 277 275 274 273 273 272 271 270 269 268 267 267 266
292 292 293 294 295 296 298 299 300 301 302 303 304 304 304 305 305 305 305 304 304 304 303 303 302 302 302 302 302 302 303 302 302 301 301 300 300 300 300 299 298 297 297 297 296 296 296 296 296 296 296 296 295 295 295 294 294 293 293 292 291 290 289 288 287 285 284 283 282 281 280 279 278 277 275 274 273 272 271 270 270 269 268 267 266 265
291 292 293 294 295 297 298 299 300 301 302 303 304 304 305 305 305 305 305 305 304 304 303 303 302 302 301 301 302 302 303 303 302 301 301 300 300 301 301 299 298 297 297 297 297 297 297 297 297 297 297 296 296 296 295 295 294 294 293 292 291 290 289 288 287 285 284 283 282 281 280 279 278 277 276 275 274 273 272 271 270 269 268 267 266 265
291 292 293 295 296 297 298 299 300 301 302 303 304 304 305 305 305 305 305 305 304 304 303 302 302 301 301 301 302 303 303 303 302 302 301 301 301 301 301 300 299 298 298 298 298 298 298 298 298 298 297 297 297 296 296 295 294 294 293 292 291 290 289 287 286 285 284 283 282 281 280 280 279 278 277 276 275 273 272 271 270 269 268 267 266 265
292 293 294 295 296 297 298 299 300 301 302 303 304 304 305 305 306 305 305 305 305 304 303 302 302 301 302 302 302 303 303 303 303 302 302 301 301 301 301 300 299 299 298 299 299 299 299 299 299 298 298 298 297 297 296 295 295 294 293 292 291 289 288 287 286 285 284 284 283 282 281 280 279 278 277 276 275 274 273 272 271 270 268 267 266 265
292 293 294 295 296 297 298 299 300 301 302 303 303 304 304 305 305 305 305 305 305 304 303 302 302 301 301 301 302 302 303 303 303 302 302 301 301 301 301 301 300 300 299 300 300 300 300 300 299 299 299 298 298 297 296 296 295 294 293 292 291 290 289 288 287 286 285 284 283 282 281 280 279 278 277 276 275 274 273 272 271 270 269 268 267 265
292 293 294 295 296 297 298 299 300 301 301 302 302 303 304 304 305 305 305 305 305 304 303 302 302 301 301 301 302 303 303 303 303 302 302 301 301 301 302 302 301 300 300 301 301 301 301 300 300 300 299 299 298 297 297 296 295 294 293 292 291 290 289 288 287 286 285 284 283 282 281 280 279 278 277 276 275 274 273 272 271 270 269 268 267 266
292 293 294 295 296 297 298 298 299 300 301 302 302 303 303 304 304 305 305 305 305 304 304 303 302 302 302 302 303 303 304 304 303 303 302 301 301 301 302 302 302 301 301 301 302 302 301 301 300 300 300 299 299 298 297 296 295 294 293 292 291 290 289 289 288 287 286 285 284 283 282 281 279 278 277 276 275 274 273 271 270 269 268 267 266 265
292 293 294 295 296 297 297 298 299 299 300 301 302 302 303 303 304 304 305 305 305 305 304 304 303 303 303 304 304 304 304 304 304 303 302 302 301 302 303 303 302 302 302 302 302 302 302 302 301 301 301 300 299 298 297 296 296 295 294 293 292 291 290 289 288 288 287 286 285 283 282 281 280 279 278 276 275 274 273 272 270 269 268 267 266 265
292 293 294 295 295 296 296 297 298 299 300 301 302 302 303 304 304 305 305 305 305 306 305 305 304 304 304 304 304 305 305 305 304 303 303 302 302 302 303 303 303 303 302 303 303 303 303 302 302 302 301 301 300 299 298 297 296 295 294 293 293 292 291 290 289 288 287 286 285 284 283 282 281 279 278 277 276 274 273 272 271 269 268 267 266 265
292 293 294 295 295 296 296 297 298 299 300 301 302 303 303 304 305 305 305 306 306 306 306 305 305 305 305 305 305 305 305 305 305 304 303 303 302 302 303 304 304 304 303 303 304 304 303 303 303 302 302 301 301 300 299 298 297 296 295 294 293 293 292 291 290 289 288 287 286 285 284 282 281 280 279 278 276 275 274 272 271 270 269 267 266 264
293 293 294 295 296 296 297 298 299 300 301 302 302 303 304 304 305 305 305 306 307 307 306 305 305 305 305 305 305 305 305 305 305 305 304 303 303 303 304 305 305 305 305 304 304 304 304 303 303 303 303 302 301 300 300 299 298 297 296 295 294 293 292 292 291 289 288 287 286 285 284 282 281 280 279 278 277 275 274 273 272 271 269 268 266 264
293 294 295 296 296 297 298 299 300 301 301 302 302 303 304 304 305 305 306 307 307 307 306 305 305 305 305 305 305 305 305 305 305 306 305 305 304 304 305 305 306 306 306 306 305 305 304 304 304 304 303 303 302 301 301 300 299 298 297 296 295 294 293 292 291 289 288 287 286 285 284 282 281 280 279 278 277 276 275 274 273 272 270 268 267 265
294 295 295 296 297 298 298 299 300 301 301 302 303 303 304 305 305 305 306 307 307 306 306 305 305 305 305 305 305 305 305 306 306 307 306 306 305 305 306 306 306 307 307 307 307 306 305 305 305 305 304 303 303 302 301 300 300 299 298 297 296 294 293 292 291 289 288 287 286 285 284 283 281 280 279 278 277 276 275 274 273 272 271 269 267 266
295 295 296 297 297 298 299 299 300 301 302 302 303 304 304 305 305 306 306 307 306 306 305 305 305 305 305 305 305 305 306 306 307 307 307 306 306 306 307 307 307 307 307 307 307 307 307 306 306 305 305 304 303 303 302 301 300 300 299 298 296 295 293 292 291 290 289 287 286 285 284 283 282 280 279 278 277 276 275 274 273 272 270 269 268 266
295 296 296 297 298 298 299 300 301 301 302 303 304 304 305 305 306 306 306 306 306 305 305 305 304 304 304 304 304 304 305 306 307 308 308 307 306 306 307 307 307 307 308 307 307 306 306 307 307 306 305 305 304 303 303 302 301 300 299 298 296 295 294 292 291 290 289 288 287 285 284 283 282 280 279 278 277 275 274 273 272 271 269 268 267 266
295 296 296 297 298 299 300 300 301 302 303 304 304 305 305 306 306 306 306 306 305 305 305 304 304 304 304 304 304 304 305 306 307 308 308 307 307 307 307 308 308 308 308 307 306 305 305 305 306 306 306 305 305 304 303 302 301 300 299 297 296 295 294 293 292 291 290 289 287 286 284 283 281 280 279 277 276 275 273 272 271 270 269 268 267 266
295 296 297 298 299 299 300 301 302 302 303 304 305 305 306 306 306 306 306 306 305 305 304 304 304 304 304 304 304 305 305 307 308 308 308 308 308 307 308 308 308 308 308 307 307 306 305 305 305 306 306 306 305 304 304 303 301 300 298 297 296 295 295 294 293 292 290 289 288 286 285 283 282 280 278 277 275 274 272 271 270 269 267 266 266 265
296 297 298 298 299 300 300 301 302 303 304 305 305 306 306 306 306 306 306 306 305 305 305 304 304 304 304 305 305 306 306 308 308 309 309 308 308 308 308 308 308 308 308 307 307 306 306 305 305 305 306 306 305 305 304 302 301 300 298 297 296 296 295 294 293 292 291 290 288 287 285 284 282 280 278 277 275 273 272 271 269 268 266 265 264 264
296 297 298 298 299 300 301 302 303 304 305 305 306 306 306 306 306 306 306 306 306 305 305 305 304 304 304 305 305 306 307 308 309 309 309 309 308 308 308 308 308 308 307 307 306 306 305 305 305 305 305 305 305 305 304 302 301 300 298 298 297 296 295 295 294 293 292 291 289 288 286 285 283 281 279 277 275 274 272 270 269 267 266 264 263 262
296 297 298 298 299 300 301 303 304 304 305 306 306 306 306 306 306 306 306 306 306 306 305 305 305 305 305 305 306 306 307 308 309 309 309 309 309 308 308 308 307 307 306 306 305 305 305 305 306 306 305 305 304 304 304 303 301 300 299 298 298 297 296 296 295 294 293 291 290 289 287 286 284 282 280 279 277 275 273 271 269 267 266 264 263 261
296 297 298 299 300 301 302 303 304 305 305 306 306 306 306 306 306 306 306 306 306 306 306 306 306 306 306 306 306 307 307 308 309 309 309 309 309 308 307 307 307 306 306 305 305 305 305 305 306 306 306 305 304 303 303 303 302 300 300 299 299 298 298 297 296 295 294 293 291 290 288 287 285 284 282 280 278 276 274 272 270 268 266 264 262 261
296 297 298 299 301 302 303 304 304 305 305 306 306 306 306 306 306 306 306 306 306 306 306 306 307 307 307 307 307 307 308 308 309 309 309 309 309 308 307 307 306 306 306 305 305 304 304 304 304 305 305 305 304 303 302 302 302 301 301 301 300 299 299 299 298 297 295 294 292 291 289 288 286 285 283 281 280 277 275 273 271 269 267 265 263 261
297 298 299 300 301 302 303 304 304 305 305 306 306 306 306 307 307 307 307 307 307 307 307 307 307 308 308 308 309 309 309 309 309 309 309 309 309 308 307 307 306 306 306 306 305 304 304 304 303 303 303 303 303 303 303 303 302 302 302 302 302 301 301 300 299 297 296 294 292 291 290 288 287 285 283 281 279 278 276 274 272 269 267 265 263 261
297 298 299 301 302 303 303 304 305 305 306 306 306 307 307 307 308 308 308 308 308 308 308 308 309 309 309 310 310 310 310 310 310 310 310 310 309 308 308 307 306 306 306 306 305 305 304 304 303 303 303 302 302 302 303 303 303 303 303 303 302 301 301 300 298 297 295 294 292 291 290 288 287 285 283 281 279 277 275 273 272 270 267 265 263 261
298 299 300 301 302 303 304 304 305 305 306 306 306 307 307 308 308 308 308 309 309 309 309 310 310 310 310 310 311 311 311 311 311 311 310 310 309 309 308 308 307 307 307 307 306 305 305 304 303 303 303 303 303 303 303 304 304 304 303 303 302 301 300 299 298 297 296 294 293 292 290 289 287 286 284 282 279 277 275 273 271 269 267 265 263 260
298 299 300 301 302 303 304 305 305 305 306 306 306 307 308 308 309 309 309 309 309 310 310 311 311 311 311 311 312 312 312 312 312 311 311 311 310 309 309 309 308 308 308 307 307 306 305 304 304 303 303 304 304 303 304 304 304 304 303 303 302 302 301 299 298 297 296 295 294 293 292 290 289 287 285 283 281 279 276 274 272 269 267 265 262 260
298 300 301 302 303 304 304 305 305 305 306 306 306 307 308 308 309 309 309 309 310 310 311 311 312 312 312 312 312 313 313 314 313 313 312 311 311 311 310 310 309 309 308 307 307 306 306 305 304 304 304 304 304 304 304 304 304 304 303 302 301 300 300 299 299 299 297 296 295 294 293 292 290 288 287 285 283 281 278 276 273 270 267 265 262 260
299 300 301 302 303 304 304 304 305 305 305 306 307 307 308 309 309 310 310 310 310 311 312 312 313 313 312 313 313 314 314 314 314 314 314 313 312 312 312 311 311 310 309 308 307 307 307 306 306 306 306 305 304 303 303 304 304 304 303 302 302 300 299 299 299 299 299 298 297 295 294 293 291 290 288 286 284 282 280 277 275 272 269 266 263 260
299 300 301 302 303 303 304 304 304 305 306 306 307 308 309 309 310 310 310 311 311 311 312 313 313 313 313 314 314 314 315 315 315 315 315 315 314 314 313 312 312 311 310 309 308 307 307 307 306 306 306 305 304 303 303 304 304 304 304 303 303 302 301 301 300 300 299 298 297 296 295 294 292 290 289 287 286 284 282 279 276 273 270 267 264 260
300 301 302 302 303 303 303 304 305 305 306 307 307 308 309 310 310 311 311 311 312 312 313 313 313 313 313 314 314 315 315 315 316 316 316 316 315 315 314 314 313 312 311 310 310 309 308 307 306 306 306 305 305 304 305 305 305 304 304 304 304 303 302 302 301 301 300 299 298 297 296 295 293 291 290 289 287 286 284 281 278 275 272 268 265 261
300 301 301 302 302 303 303 304 305 306 306 307 308 309 310 310 311 311 311 312 312 313 313 314 314 314 314 314 315 315 315 316 316 316 316 316 316 316 315 315 314 314 313 312 311 310 309 308 307 306 305 305 305 305 306 306 306 305 305 305 304 304 303 303 303 303 302 301 300 299 298 296 294 293 292 290 289 288 286 283 280 277 273 269 265 262
300 300 301 302 302 303 304 304 305 306 307 307 308 309 310 311 311 311 312 313 313 313 314 314 314 314 314 315 315 316 316 316 316 317 317 317 317 316 316 316 316 315 314 313 312 311 310 309 307 306 306 305 306 306 307 307 307 307 306 306 305 305 305 305 306 306 305 303 302 301 299 297 296 294 293 292 290 289 288 285 282 279 275 270 266 262
300 300 301 301 302 303 304 305 305 306 307 308 308 309 310 311 312 312 313 313 313 314 314 314 314 315 315 315 316 316 317 317 317 317 317 317 317 317 317 317 317 317 316 315 314 313 312 311 310 309 308 307 308 308 309 309 309 309 308 307 307 307 307 308 308 308 307 306 305 304 302 300 298 296 294 293 291 290 289 287 284 281 276 271 267 262
299 300 301 301 302 303 304 305 306 306 307 308 309 310 310 311 312 313 313 314 314 314 314 314 315 315 315 315 316 317 317 317 317 317 318 318 318 318 318 318 318 318 317 316 315 315 314 314 313 313 312 311 311 311 312 312 312 311 310 309 309 310 310 310 310 310 310 309 309 308 306 304 301 299 296 294 293 292 291 289 287 283 278 273 267 262